Surface/Precipitation History
02/19/2017 22:17  to  2/20/2017 22:17
Change End Date:
Date/Time
(MST)
Sf
Temp Chem Water Layer Surface Precipitation
Sfc Pvt Sub Frz Factor Pct Dpth DpthThk IcePct Cond Salin FI Type Intens Accum Rate
02/20/2017 22:06 Wet 32.4F - 32F 32F 35 0% 0.00 in - 0% 0 mhos 9 - Snow Slight 0.13 in 0.0 iph
02/20/2017 22:04 Wet 32.4F - 32F 32F 10 0% 0.00 in - 0% 0 mhos 10 - Snow Slight 0.13 in 0.0 iph
02/20/2017 21:54 Wet 32.4F - 32F 32F 5 0% 0.00 in - 0% 0 mhos 15 - Snow Slight 0.13 in 0.0 iph
02/20/2017 21:51 Wet 32.4F - 32F 32F 5 0% 0.00 in - 0% 0 mhos 19 - Snow Slight 0.13 in 0.0 iph
02/20/2017 21:44 Wet 32.4F - 32F 32F 5 0% 0.00 in - 0% 0 mhos 22 - Snow Slight 0.13 in 0.0 iph
02/20/2017 21:36 Wet 32.4F - 32F 32F 25 0% 0.00 in - 0% 0 mhos 19 - Rain Slight 0.13 in 0.0 iph
02/20/2017 21:34 Wet 32.4F - 32F 32F 15 0% 0.00 in - 0% 0 mhos 18 - Rain Slight 0.13 in 0.0 iph
02/20/2017 21:23 Wet 32.2F - 32F 32F 35 0% 0.00 in - 0% 0 mhos 18 - Rain Slight 0.12 in 0.0 iph
02/20/2017 21:21 Wet 32.4F - 32F 32F 20 0% 0.00 in - 0% 0 mhos 16 - Rain Slight 0.12 in 0.0 iph
02/20/2017 21:13 Wet 32.5F - 32F 32F 75 0% 0.10 in - 0% 0 mhos 14 - Rain Slight 0.12 in 0.0 iph
02/20/2017 21:06 Wet 32.5F - 32F 32F 90 0% 0.10 in - 0% 0 mhos 17 - Yes Slight 0.12 in 0.0 iph
02/20/2017 21:03 Wet 32.5F - 32F 32F 70 0% 0.00 in - 0% 0 mhos 17 - Yes Slight 0.12 in 0.0 iph
02/20/2017 20:53 Wet 32.4F - 32F 32F 90 0% 0.10 in - 0% 0 mhos 21 - Rain Slight 0.11 in 0.0 iph
02/20/2017 20:51 Wet 32.5F - 32F 32F 95 0% 0.10 in - 0% 0 mhos 22 - Snow Slight 0.11 in 0.0 iph
02/20/2017 20:43 Wet 32.5F - 32F 32F 65 0% 0.10 in - 0% 0 mhos 13 - Snow Slight 0.11 in 0.0 iph
Date/Time
(MST)
Sf
Temp Chem Water Layer Surface Precipitation
Sfc Pvt Sub Frz Factor Pct Dpth DpthThk IcePct Cond Salin FI Type Intens Accum Rate
02/20/2017 20:36 Wet 32.9F - 32F 32F 20 0% 0.00 in - 0% 0 mhos 25 - Yes Slight 0.10 in 0.0 iph
02/20/2017 20:33 Wet 32.9F - 32F 32F 30 0% 0.00 in - 0% 0 mhos 25 - Rain Slight 0.10 in 0.0 iph
02/20/2017 20:23 Wet 32.7F - 32F 32F 5 0% 0.00 in - 0% 0 mhos 19 - Rain Slight 0.10 in 0.0 iph
02/20/2017 20:21 Wet 32.7F - 32F 32F 10 0% 0.00 in - 0% 0 mhos 18 - Rain Slight 0.10 in 0.0 iph
02/20/2017 20:13 Wet 32.7F - 32F 32F 5 0% 0.00 in - 0% 0 mhos 19 - Rain Slight 0.10 in 0.0 iph
02/20/2017 20:06 Wet 32.9F - 32F 32F 20 0% 0.00 in - 0% 0 mhos 23 - Rain Slight 0.10 in 0.0 iph
02/20/2017 20:03 Wet 33.1F - 32F 32F 15 0% 0.00 in - 0% 0 mhos 23 - Rain Slight 0.10 in 0.0 iph
02/20/2017 19:53 Wet 32.9F - 32F 32F 10 0% 0.00 in - 0% 0 mhos 21 - Rain Slight 0.10 in 0.0 iph
02/20/2017 19:51 Wet 32.9F - 32F 32F 30 0% 0.00 in - 0% 0 mhos 30 - Yes Slight 0.10 in 0.0 iph
02/20/2017 19:43 Wet 32.5F - 32F 32F 30 0% 0.00 in - 0% 0 mhos 25 - Yes Slight 0.10 in 0.0 iph
02/20/2017 19:36 Wet 32.5F - 32F 32F 5 0% 0.00 in - 0% 0 mhos 32 - Rain Slight 0.09 in 0.0 iph
02/20/2017 19:33 Wet 32.5F - 32F 32F 30 0% 0.00 in - 0% 0 mhos 32 - Yes Slight 0.09 in 0.0 iph
02/20/2017 19:23 Wet 32.5F - 32F 32F 5 0% 0.00 in - 0% 0 mhos 35 - Snow Slight 0.09 in 0.0 iph
02/20/2017 19:21 Wet 32.5F - 32F 32F 5 0% 0.00 in - 0% 0 mhos 39 - Snow Slight 0.09 in 0.0 iph
02/20/2017 19:13 Wet 32.9F - 32F 32F 30 0% 0.00 in - 0% 0 mhos 47 - Snow Slight 0.09 in 0.1 iph
Date/Time
(MST)
Sf
Temp Chem Water Layer Surface Precipitation
Sfc Pvt Sub Frz Factor Pct Dpth DpthThk IcePct Cond Salin FI Type Intens Accum Rate
02/20/2017 19:06 Wet 32.7F - 32F 32F 50 0% 0.00 in - 0% 0 mhos 42 - Yes Slight 0.08 in 0.1 iph
02/20/2017 19:03 Wet 32.7F - 32F 32F 80 0% 0.00 in - 0% 1 mhos 65 - Snow Slight 0.07 in 0.1 iph
02/20/2017 18:53 Wet 33.4F - 32F 32F 30 0% 0.00 in - 0% 1 mhos 92 - Yes Moderate 0.07 in 0.1 iph
02/20/2017 18:51 Wet 33.6F - 32F 32F 35 0% 0.00 in - 0% 1 mhos 90 - Yes Slight 0.07 in 0.1 iph
02/20/2017 18:43 Wet 34.0F - 32F 32F 55 0% 0.00 in - 0% 1 mhos 115 - Yes Slight 0.06 in 0.0 iph
02/20/2017 18:36 Wet 34.0F - 32F 32F 95 1% 0.00 in - 0% 1 mhos 138 - Yes Slight 0.06 in 0.0 iph
02/20/2017 18:33 Wet 34.0F - 32F 32F 90 1% 0.00 in - 0% 1 mhos 140 - Yes Slight 0.06 in 0.0 iph
02/20/2017 18:23 Wet 34.2F - 32F 32F 95 1% 0.00 in - 0% 1 mhos 138 - Rain Slight 0.06 in 0.0 iph
02/20/2017 18:21 Wet 34.0F - 32F 32F 95 1% 0.00 in - 0% 1 mhos 131 - Rain Slight 0.05 in 0.0 iph
02/20/2017 18:13 Wet 33.8F - 32F 32F 75 0% 0.00 in - 0% 1 mhos 104 - None None 0.05 in 0.0 iph
02/20/2017 18:06 Wet 33.1F - 32F 32F 85 0% 0.00 in - 0% 1 mhos 126 - None None 0.05 in 0.0 iph
02/20/2017 18:03 Wet 33.1F - 32F 32F 90 1% 0.00 in - 0% 1 mhos 150 - Rain Slight 0.05 in 0.0 iph
02/20/2017 17:53 Wet 33.3F - 32F 32F 95 1% 0.00 in - 0% 1 mhos 145 - Rain Slight 0.05 in 0.0 iph
02/20/2017 17:51 Wet 33.3F - 32F 32F 95 1% 0.00 in - 0% 1 mhos 149 - Rain Slight 0.05 in 0.0 iph
02/20/2017 17:43 Wet 33.8F - 32F 32F 80 1% 0.00 in - 0% 1 mhos 131 - Rain Slight 0.05 in 0.0 iph
Date/Time
(MST)
Sf
Temp Chem Water Layer Surface Precipitation
Sfc Pvt Sub Frz Factor Pct Dpth DpthThk IcePct Cond Salin FI Type Intens Accum Rate
02/20/2017 17:35 Wet 33.8F - 32F 32F 90 1% 0.00 in - 0% 1 mhos 138 - Rain Slight 0.05 in 0.0 iph
02/20/2017 17:33 Wet 34.0F - 32F 32F 80 1% 0.00 in - 0% 1 mhos 146 - Rain Slight 0.05 in 0.0 iph
02/20/2017 17:23 Wet 34.2F - 32F 32F 70 1% 0.00 in - 0% 1 mhos 139 - Rain Slight 0.05 in 0.0 iph
02/20/2017 17:21 Wet 34.3F - 32F 32F 75 0% 0.00 in - 0% 1 mhos 128 - Rain Slight 0.05 in 0.0 iph
02/20/2017 17:13 Wet 34.5F - 32F 32F 95 1% 0.00 in - 0% 2 mhos 172 - Rain Slight 0.05 in 0.0 iph
02/20/2017 17:06 Wet 35.4F - 32F 32F 95 1% 0.00 in - 0% 2 mhos 190 - Yes Slight 0.05 in 0.0 iph
02/20/2017 17:03 Wet 35.4F - 32F 32F 85 1% 0.00 in - 0% 2 mhos 201 - Yes Slight 0.05 in 0.0 iph
02/20/2017 16:53 Wet 35.8F - 32F 32F 90 1% 0.00 in - 0% 2 mhos 247 - Snow Slight 0.04 in 0.1 iph
02/20/2017 16:51 Wet 35.6F - 32F 32F 95 1% 0.00 in - 0% 3 mhos 261 - Snow Slight 0.04 in 0.0 iph
02/20/2017 16:43 Wet 36.7F - 32F 32F 95 1% 0.00 in - 0% 3 mhos 260 - Yes Slight 0.04 in 0.0 iph
02/20/2017 16:36 Wet 36.9F - 32F 32F 95 1% 0.00 in - 0% 3 mhos 275 - Rain Slight 0.03 in 0.0 iph
02/20/2017 16:33 Wet 37.0F - 32F 32F 95 1% 0.00 in - 0% 3 mhos 285 - Rain Slight 0.03 in 0.0 iph
02/20/2017 16:23 Wet 37.2F - 32F 32F 95 1% 0.00 in - 0% 2 mhos 230 - Rain Slight 0.03 in 0.0 iph
02/20/2017 16:21 Wet 37.2F - 32F 32F 95 1% 0.00 in - 0% 2 mhos 233 - Rain Slight 0.03 in 0.0 iph
02/20/2017 16:13 Wet 37.8F - 32F 32F 85 1% 0.00 in - 0% 2 mhos 214 - Rain Slight 0.02 in 0.0 iph
Date/Time
(MST)
Sf
Temp Chem Water Layer Surface Precipitation
Sfc Pvt Sub Frz Factor Pct Dpth DpthThk IcePct Cond Salin FI Type Intens Accum Rate
02/20/2017 16:06 Wet 37.9F - 32F 32F 80 1% 0.00 in - 0% 2 mhos 233 - Rain Slight 0.02 in 0.0 iph
02/20/2017 16:03 Wet 38.3F - 32F 32F 85 1% 0.00 in - 0% 2 mhos 216 - Rain Slight 0.02 in 0.0 iph
02/20/2017 15:52 Wet 38.5F - 32F 32F 95 1% 0.00 in - 0% 2 mhos 235 - Rain Slight 0.02 in 0.0 iph
02/20/2017 15:51 Wet 38.5F - 32F 32F 95 1% 0.00 in - 0% 2 mhos 230 - Rain Slight 0.02 in 0.0 iph
02/20/2017 15:42 Wet 39.6F - 32F 32F 95 1% 0.00 in - 0% 3 mhos 253 - Rain Slight 0.02 in 0.0 iph
02/20/2017 15:36 Wet 39.4F - 32F 32F 95 1% 0.00 in - 0% 3 mhos 242 - Rain Slight 0.02 in 0.0 iph
02/20/2017 15:32 Wet 39.4F - 32F 32F 95 1% 0.00 in - 0% 2 mhos 228 - Rain Slight 0.02 in 0.0 iph
02/20/2017 15:22 Wet 40.1F - 32F 32F 95 1% 0.00 in - 0% 2 mhos 230 - Snow Slight 0.02 in 0.0 iph
02/20/2017 15:21 Wet 39.7F - 32F 32F 95 1% 0.00 in - 0% 2 mhos 218 - Snow Slight 0.02 in 0.0 iph
02/20/2017 15:12 Wet 40.5F - 32F 32F 95 1% 0.00 in - 0% 3 mhos 264 - Snow Slight 0.02 in 0.0 iph
02/20/2017 15:06 Wet 40.6F - 32F 32F 80 1% 0.00 in - 0% 2 mhos 228 - Snow Slight 0.02 in 0.0 iph
02/20/2017 15:02 Wet 40.3F - 32F 32F 85 1% 0.00 in - 0% 2 mhos 232 - Snow Slight 0.02 in 0.0 iph
02/20/2017 14:52 Wet 40.5F - 32F 32F 95 0% 0.00 in - 0% 1 mhos 102 - Snow Slight 0.02 in 0.0 iph
02/20/2017 14:51 Wet 40.5F - 32F 32F 95 0% 0.00 in - 0% 1 mhos 88 - Snow Slight 0.02 in 0.0 iph
02/20/2017 14:42 Wet 41.7F - 32F 32F 80 0% 0.00 in - 0% 1 mhos 48 - Snow Slight 0.02 in 0.0 iph
Date/Time
(MST)
Sf
Temp Chem Water Layer Surface Precipitation
Sfc Pvt Sub Frz Factor Pct Dpth DpthThk IcePct Cond Salin FI Type Intens Accum Rate
02/20/2017 14:36 Wet 43.2F - 32F 32F 15 0% 0.00 in - 0% 1 mhos 48 - Snow Slight 0.02 in 0.0 iph
02/20/2017 14:32 Wet 43.9F - 32F 32F 5 0% 0.00 in - 0% 1 mhos 60 - Snow Slight 0.02 in 0.0 iph
02/20/2017 14:22 Wet 44.4F - 32F 32F 5 0% 0.00 in - 0% 1 mhos 65 - Yes Slight 0.02 in 0.0 iph
02/20/2017 14:21 Wet 44.6F - 32F 32F 5 0% 0.00 in - 0% 1 mhos 64 - Yes Slight 0.02 in 0.0 iph
02/20/2017 14:12 Wet 45.5F - 32F 32F 5 0% 0.00 in - 0% 1 mhos 66 - Rain Slight 0.01 in 0.0 iph
02/20/2017 14:06 Wet 46.6F - 32F 32F 5 0% 0.00 in - 0% 1 mhos 63 - Rain Slight 0.01 in 0.0 iph
02/20/2017 14:02 Wet 46.8F - 32F 32F 5 0% 0.00 in - 0% 1 mhos 53 - Rain Slight 0.01 in 0.0 iph
02/20/2017 13:52 Dry 46.8F - 32F - - - - - - 0 mhos 0 - Rain Slight 0.01 in 0.0 iph
02/20/2017 13:51 Dry 46.9F - 32F - - - - - - 0 mhos 0 - Rain Slight 0.01 in 0.0 iph
02/20/2017 13:42 Dry 47.3F - 32F - - - - - - 0 mhos 0 - None None 0.01 in 0.0 iph
02/20/2017 13:36 Dry 48.4F - 32F - - - - - - 0 mhos 0 - Rain Slight 0.01 in 0.0 iph
02/20/2017 13:32 Dry 48.9F - 32F - - - - - - 0 mhos 0 - Rain Slight 0.01 in 0.0 iph
02/20/2017 13:22 Dry 50.7F - 32F - - - - - - 0 mhos 0 - None None 0.01 in 0.0 iph
02/20/2017 13:21 Dry 50.7F - 32F - - - - - - 0 mhos 0 - None None 0.01 in 0.0 iph
02/20/2017 13:12 Dry 49.8F - 32F - - - - - - 0 mhos 0 - Rain Slight 0.01 in 0.0 iph
Date/Time
(MST)
Sf
Temp Chem Water Layer Surface Precipitation
Sfc Pvt Sub Frz Factor Pct Dpth DpthThk IcePct Cond Salin FI Type Intens Accum Rate
02/20/2017 13:06 Dry 49.5F - 32F - - - - - - 0 mhos 0 - Rain Slight 0.01 in 0.0 iph
02/20/2017 13:02 Dry 50.4F - 32F - - - - - - 0 mhos 0 - Rain Slight 0.01 in 0.0 iph
02/20/2017 12:52 Dry 52.0F - 32F - - - - - - 0 mhos 0 - None None 0.01 in 0.0 iph
02/20/2017 12:51 Dry 52.0F - 32F - - - - - - 0 mhos 0 - None None 0.01 in 0.0 iph
02/20/2017 12:42 Dry 50.7F - 32F - - - - - - 0 mhos 0 - None None 0.01 in 0.0 iph
02/20/2017 12:36 Dry 48.0F - 32F - - - - - - 0 mhos 0 - None None 0.01 in 0.0 iph
02/20/2017 12:32 Dry 48.2F - 32F - - - - - - 0 mhos 0 - None None 0.01 in 0.0 iph
02/20/2017 12:22 Dry 47.1F - 32F - - - - - - 0 mhos 0 - None None 0.01 in 0.0 iph
02/20/2017 12:21 Dry 47.1F - 32F - - - - - - 0 mhos 0 - None None 0.01 in 0.0 iph
02/20/2017 12:12 Dry 46.9F - 32F - - - - - - 0 mhos 0 - None None 0.01 in 0.0 iph
02/20/2017 12:06 Dry 46.8F - 32F - - - - - - 0 mhos 0 - None None 0.01 in 0.0 iph
02/20/2017 12:02 Dry 45.7F - 32F - - - - - - 0 mhos 0 - None None 0.01 in 0.0 iph
02/20/2017 11:52 Dry 42.6F - 32F - - - - - - 0 mhos 0 - None None 0.01 in 0.0 iph
02/20/2017 11:51 Dry 42.4F - 32F - - - - - - 0 mhos 0 - Rain Slight 0.01 in 0.0 iph
02/20/2017 11:42 Dry 42.1F - 32F - - - - - - 0 mhos 0 - Rain Slight 0.01 in 0.0 iph
Date/Time
(MST)
Sf
Temp Chem Water Layer Surface Precipitation
Sfc Pvt Sub Frz Factor Pct Dpth DpthThk IcePct Cond Salin FI Type Intens Accum Rate
02/20/2017 11:36 Dry 42.3F - 32F - - - - - - 0 mhos 0 - None None 0.01 in 0.0 iph
02/20/2017 11:32 Dry 42.6F - 32F - - - - - - 0 mhos 0 - None None 0.01 in 0.0 iph
02/20/2017 11:22 Dry 42.6F - 32F - - - - - - 0 mhos 0 - None None 0.01 in 0.0 iph
02/20/2017 11:21 Dry 42.6F - 32F - - - - - - 0 mhos 0 - None None 0.01 in 0.0 iph
02/20/2017 11:11 Dry 43.7F - 32F - - - - - - 0 mhos 0 - None None 0.01 in 0.0 iph
02/20/2017 11:06 Dry 43.2F - 32F - - - - - - 0 mhos 0 - None None 0.01 in 0.0 iph
02/20/2017 11:01 Dry 43.2F - 32F - - - - - - 0 mhos 1 - None None 0.01 in 0.0 iph
02/20/2017 10:51 Dry 41.4F - 32F - - - - - - 0 mhos 3 - None None 0.01 in 0.0 iph
02/20/2017 10:51 Dry 41.4F - 32F - - - - - - 0 mhos 3 - None None 0.01 in 0.0 iph
02/20/2017 10:41 Dry 40.6F - 32F - - - - - - 0 mhos 7 - None None 0.01 in 0.0 iph
02/20/2017 10:36 Dry 41.0F - 32F - - - - - - 0 mhos 9 - None None 0.01 in 0.0 iph
02/20/2017 10:31 Dry 41.9F - 32F - - - - - - 0 mhos 14 - None None 0.01 in 0.0 iph
02/20/2017 10:21 Dry 39.2F - 32F - - - - - - 0 mhos 23 - None None 0.01 in 0.0 iph
02/20/2017 10:21 Dry 39.2F - 32F - - - - - - 0 mhos 23 - None None 0.01 in 0.0 iph
02/20/2017 10:11 Dry 37.9F - 32F - - - - - - 0 mhos 31 - None None 0.01 in 0.0 iph
Date/Time
(MST)
Sf
Temp Chem Water Layer Surface Precipitation
Sfc Pvt Sub Frz Factor Pct Dpth DpthThk IcePct Cond Salin FI Type Intens Accum Rate
02/20/2017 10:07 Dry 37.4F - 32F - - - - - - 0 mhos 34 - None None 0.01 in 0.0 iph
02/20/2017 10:01 Dry 36.7F - 32F - - - - - - 0 mhos 39 - None None 0.01 in 0.0 iph
02/20/2017 09:51 Dry 35.6F - 32F - - - - - - 0 mhos 46 - None None 0.01 in 0.0 iph
02/20/2017 09:51 Dry 35.6F - 32F - - - - - - 0 mhos 46 - None None 0.01 in 0.0 iph
02/20/2017 09:41 Wet 34.3F - 32F 32F 5 0% 0.00 in - 0% 1 mhos 55 - None None 0.01 in 0.0 iph
02/20/2017 09:36 Wet 33.8F - 32F 32F 5 0% 0.00 in - 0% 1 mhos 59 - None None 0.01 in 0.0 iph
02/20/2017 09:31 Wet 33.3F - 32F 32F 5 0% 0.00 in - 0% 1 mhos 61 - None None 0.01 in 0.0 iph
02/20/2017 09:21 Wet 32.0F - 32F 32F 5 0% 0.00 in - 0% 1 mhos 62 - None None 0.01 in 0.0 iph
02/20/2017 09:21 Wet 32.0F - 32F 32F 5 0% 0.00 in - 0% 1 mhos 62 - None None 0.01 in 0.0 iph
02/20/2017 09:11 Ice Warning 30.9F - 32F 32F 5 0% - - 94% 1 mhos 64 - None None 0.01 in 0.0 iph
02/20/2017 09:06 Ice Warning 30.4F - 32F 32F 5 0% - - 96% 1 mhos 62 - None None 0.01 in 0.0 iph
02/20/2017 09:01 Ice Warning 29.7F - 32F 32F 10 0% - - 97% 1 mhos 63 - None None 0.01 in 0.0 iph
02/20/2017 08:51 Ice Warning 28.8F - 32F 32F 10 0% - - 98% 1 mhos 63 - None None 0.01 in 0.0 iph
02/20/2017 08:51 Ice Warning 28.8F - 32F 32F 10 0% - - 98% 1 mhos 63 - None None 0.01 in 0.0 iph
02/20/2017 08:41 Ice Warning 27.7F - 32F 32F 10 0% - - 99% 1 mhos 65 - None None 0.01 in 0.0 iph
Date/Time
(MST)
Sf
Temp Chem Water Layer Surface Precipitation
Sfc Pvt Sub Frz Factor Pct Dpth DpthThk IcePct Cond Salin FI Type Intens Accum Rate
02/20/2017 08:36 Ice Warning 27.3F - 32F 32F 10 0% - - 99% 1 mhos 65 - None None 0.01 in 0.0 iph
02/20/2017 08:31 Ice Warning 26.6F - 32F 32F 10 0% - - 99% 1 mhos 66 - None None 0.01 in 0.0 iph
02/20/2017 08:21 Ice Warning 26.1F - 32F 32F 15 0% - - 99% 1 mhos 66 - None None 0.01 in 0.0 iph
02/20/2017 08:21 Ice Warning 25.9F - 32F 32F 15 0% - - 99% 1 mhos 66 - None None 0.01 in 0.0 iph
02/20/2017 08:11 Ice Warning 25.0F - 32F 32F 15 0% - - 99% 1 mhos 66 - None None 0.01 in 0.0 iph
02/20/2017 08:06 Ice Warning 24.6F - 32F 32F 20 0% - - 99% 1 mhos 66 - None None 0.01 in 0.0 iph
02/20/2017 08:01 Ice Warning 24.6F - 32F 32F 20 0% - - 99% 1 mhos 65 - None None 0.01 in 0.0 iph
02/20/2017 07:51 Ice Warning 23.9F - 32F 32F 25 0% - - 99% 1 mhos 64 - None None 0.01 in 0.0 iph
02/20/2017 07:51 Ice Warning 23.9F - 32F 32F 25 0% - - 99% 1 mhos 64 - None None 0.01 in 0.0 iph
02/20/2017 07:41 Ice Warning 23.9F - 32F 32F 25 0% - - 99% 1 mhos 63 - None None 0.01 in 0.0 iph
02/20/2017 07:36 Ice Warning 23.9F - 32F 32F 25 0% - - 99% 1 mhos 63 - None None 0.01 in 0.0 iph
02/20/2017 07:31 Ice Warning 23.9F - 32F 32F 30 0% - - 99% 1 mhos 62 - None None 0.01 in 0.0 iph
02/20/2017 07:21 Ice Warning 23.9F - 32F 32F 30 0% - - 99% 1 mhos 60 - None None 0.01 in 0.0 iph
02/20/2017 07:21 Ice Warning 23.9F - 32F 32F 30 0% - - 99% 1 mhos 60 - None None 0.01 in 0.0 iph
02/20/2017 07:11 Ice Warning 23.9F - 32F 32F 30 0% - - 99% 0 mhos 58 - None None 0.01 in 0.0 iph
Date/Time
(MST)
Sf
Temp Chem Water Layer Surface Precipitation
Sfc Pvt Sub Frz Factor Pct Dpth DpthThk IcePct Cond Salin FI Type Intens Accum Rate
02/20/2017 07:06 Ice Warning 23.9F - 32F 32F 45 0% - - 99% 0 mhos 57 - None None 0.01 in 0.0 iph
02/20/2017 07:01 Ice Warning 23.9F - 32F 32F 40 0% - - 99% 0 mhos 56 - None None 0.01 in 0.0 iph
02/20/2017 06:51 Ice Warning 23.7F - 32F 32F 10 0% - - 99% 0 mhos 55 - None None 0.01 in 0.0 iph
02/20/2017 06:51 Ice Warning 23.7F - 32F 32F 10 0% - - 99% 0 mhos 55 - None None 0.01 in 0.0 iph
02/20/2017 06:40 Ice Warning 23.9F - 32F 32F 10 0% - - 99% 0 mhos 55 - None None 0.01 in 0.0 iph
02/20/2017 06:36 Ice Warning 23.9F - 32F 32F 10 0% - - 99% 0 mhos 55 - None None 0.01 in 0.0 iph
02/20/2017 06:30 Ice Warning 23.9F - 32F 32F 10 0% - - 99% 0 mhos 55 - None None 0.01 in 0.0 iph
02/20/2017 06:21 Ice Warning 23.9F - 32F 32F 10 0% - - 99% 0 mhos 55 - None None 0.01 in 0.0 iph
02/20/2017 06:20 Ice Warning 23.9F - 32F 32F 10 0% - - 99% 0 mhos 55 - None None 0.01 in 0.0 iph
02/20/2017 06:10 Ice Warning 24.1F - 32F 32F 15 0% - - 99% 0 mhos 55 - None None 0.01 in 0.0 iph
02/20/2017 06:06 Ice Warning 24.4F - 32F 32F 15 0% - - 99% 0 mhos 55 - None None 0.01 in 0.0 iph
02/20/2017 06:00 Ice Warning 24.4F - 32F 32F 15 0% - - 99% 0 mhos 54 - None None 0.01 in 0.0 iph
02/20/2017 05:51 Ice Warning 24.8F - 32F 32F 20 0% - - 99% 0 mhos 53 - None None 0.01 in 0.0 iph
02/20/2017 05:50 Ice Warning 24.8F - 32F 32F 20 0% - - 99% 0 mhos 53 - None None 0.01 in 0.0 iph
02/20/2017 05:40 Ice Warning 25.2F - 32F 32F 25 0% - - 99% 0 mhos 51 - None None 0.01 in 0.0 iph
Date/Time
(MST)
Sf
Temp Chem Water Layer Surface Precipitation
Sfc Pvt Sub Frz Factor Pct Dpth DpthThk IcePct Cond Salin FI Type Intens Accum Rate
02/20/2017 05:36 Ice Warning 25.5F - 32F 32F 25 0% - - 99% 0 mhos 49 - None None 0.01 in 0.0 iph
02/20/2017 05:30 Ice Warning 25.3F - 32F 32F 25 0% - - 99% 0 mhos 46 - Snow Slight 0.01 in 0.0 iph
02/20/2017 05:21 Ice Warning 25.7F - 32F 32F 20 0% - - 99% 0 mhos 41 - Snow Slight 0.01 in 0.0 iph
02/20/2017 05:20 Ice Warning 25.7F - 32F 32F 20 0% - - 99% 0 mhos 41 - Snow Slight 0.01 in 0.0 iph
02/20/2017 05:10 Ice Warning 25.5F - 32F 32F 15 0% - - 99% 0 mhos 37 - Snow Slight 0.01 in 0.0 iph
02/20/2017 05:06 Ice Warning 25.7F - 32F 32F 15 0% - - 99% 0 mhos 34 - Snow Slight 0.01 in 0.0 iph
02/20/2017 05:00 Ice Warning 25.7F - 32F 32F 10 0% - - 100% 0 mhos 31 - Snow Slight 0.01 in 0.0 iph
02/20/2017 04:51 Ice Warning 25.0F - 32F 32F 5 0% - - 100% 0 mhos 29 - None None 0.01 in 0.0 iph
02/20/2017 04:50 Ice Warning 25.0F - 32F 32F 5 0% - - 100% 0 mhos 29 - None None 0.01 in 0.0 iph
02/20/2017 04:40 Ice Warning 24.8F - 32F 32F 5 0% - - 100% 0 mhos 29 - None None 0.01 in 0.0 iph
02/20/2017 04:36 Ice Warning 25.0F - 32F 32F 5 0% - - 100% 0 mhos 29 - None None 0.01 in 0.0 iph
02/20/2017 04:30 Ice Warning 25.0F - 32F 32F 5 0% - - 100% 0 mhos 29 - None None 0.01 in 0.0 iph
02/20/2017 04:21 Ice Warning 25.3F - 32F 32F 5 0% - - 100% 0 mhos 29 - None None 0.01 in 0.0 iph
02/20/2017 04:20 Ice Warning 25.3F - 32F 32F 5 0% - - 100% 0 mhos 29 - None None 0.01 in 0.0 iph
02/20/2017 04:10 Ice Warning 25.7F - 32F 32F 5 0% - - 100% 0 mhos 30 - None None 0.01 in 0.0 iph
Date/Time
(MST)
Sf
Temp Chem Water Layer Surface Precipitation
Sfc Pvt Sub Frz Factor Pct Dpth DpthThk IcePct Cond Salin FI Type Intens Accum Rate
02/20/2017 04:06 Ice Warning 25.7F - 32F 32F 5 0% - - 100% 0 mhos 31 - None None 0.01 in 0.0 iph
02/20/2017 04:00 Ice Warning 25.7F - 32F 32F 5 0% - - 99% 0 mhos 33 - None None 0.01 in 0.0 iph
02/20/2017 03:51 Ice Warning 25.7F - 32F 32F 5 0% - - 99% 0 mhos 34 - Snow Slight 0.01 in 0.0 iph
02/20/2017 03:50 Ice Warning 25.9F - 32F 32F 5 0% - - 99% 0 mhos 34 - Snow Slight 0.01 in 0.0 iph
02/20/2017 03:40 Ice Warning 26.1F - 32F 32F 5 0% - - 99% 0 mhos 32 - Snow Slight 0.01 in 0.0 iph
02/20/2017 03:36 Ice Warning 26.1F - 32F 32F 5 0% - - 99% 0 mhos 31 - Snow Slight 0.01 in 0.0 iph
02/20/2017 03:30 Ice Warning 26.1F - 32F 32F 5 0% - - 100% 0 mhos 28 - Snow Slight 0.01 in 0.0 iph
02/20/2017 03:21 Ice Warning 26.1F - 32F 32F 5 0% - - 100% 0 mhos 25 - Snow Slight 0.01 in 0.0 iph
02/20/2017 03:20 Ice Warning 26.1F - 32F 32F 5 0% - - 100% 0 mhos 25 - Snow Slight 0.01 in 0.0 iph
02/20/2017 03:10 Ice Warning 26.1F - 32F 32F 5 0% - - 100% 0 mhos 25 - None None 0.01 in 0.0 iph
02/20/2017 03:06 Ice Warning 26.2F - 32F 32F 5 0% - - 100% 0 mhos 25 - None None 0.01 in 0.0 iph
02/20/2017 03:00 Ice Warning 26.1F - 32F 32F 5 0% - - 100% 0 mhos 26 - None None 0.01 in 0.0 iph
02/20/2017 02:51 Ice Warning 26.2F - 32F 32F 5 0% - - 100% 0 mhos 27 - None None 0.01 in 0.0 iph
02/20/2017 02:50 Ice Warning 26.1F - 32F 32F 5 0% - - 100% 0 mhos 28 - None None 0.01 in 0.0 iph
02/20/2017 02:40 Ice Warning 26.1F - 32F 32F 5 0% - - 99% 0 mhos 30 - None None 0.01 in 0.0 iph
Date/Time
(MST)
Sf
Temp Chem Water Layer Surface Precipitation
Sfc Pvt Sub Frz Factor Pct Dpth DpthThk IcePct Cond Salin FI Type Intens Accum Rate
02/20/2017 02:36 Ice Warning 26.2F - 32F 32F 5 0% - - 99% 0 mhos 31 - None None 0.01 in 0.0 iph
02/20/2017 02:30 Ice Warning 26.2F - 32F 32F 5 0% - - 99% 0 mhos 33 - None None 0.01 in 0.0 iph
02/20/2017 02:21 Ice Warning 26.4F - 32F 32F 5 0% - - 99% 0 mhos 35 - Snow Slight 0.01 in 0.0 iph
02/20/2017 02:20 Ice Warning 26.4F - 32F 32F 5 0% - - 99% 0 mhos 35 - Snow Slight 0.01 in 0.0 iph
02/20/2017 02:10 Ice Warning 26.6F - 32F 32F 5 0% - - 99% 0 mhos 37 - Snow Slight 0.01 in 0.0 iph
02/20/2017 02:06 Ice Warning 26.8F - 32F 32F 5 0% - - 99% 0 mhos 38 - Snow Slight 0.01 in 0.0 iph
02/20/2017 02:00 Ice Warning 26.8F - 32F 32F 5 0% - - 99% 0 mhos 40 - Snow Slight 0.01 in 0.0 iph
02/20/2017 01:51 Ice Warning 27.0F - 32F 32F 5 0% - - 99% 0 mhos 43 - Snow Slight 0.01 in 0.0 iph
02/20/2017 01:50 Ice Warning 27.0F - 32F 32F 5 0% - - 99% 0 mhos 44 - None None 0.01 in 0.0 iph
02/20/2017 01:40 Ice Warning 27.1F - 32F 32F 5 0% - - 99% 0 mhos 47 - None None 0.01 in 0.0 iph
02/20/2017 01:36 Ice Warning 27.1F - 32F 32F 5 0% - - 99% 0 mhos 50 - None None 0.01 in 0.0 iph
02/20/2017 01:30 Ice Warning 27.3F - 32F 32F 5 0% - - 99% 0 mhos 54 - Snow Slight 0.01 in 0.0 iph
02/20/2017 01:21 Ice Warning 27.3F - 32F 32F 5 0% - - 99% 1 mhos 61 - Snow Slight 0.01 in 0.0 iph
02/20/2017 01:20 Ice Warning 27.3F - 32F 32F 5 0% - - 99% 1 mhos 62 - Snow Slight 0.01 in 0.0 iph
02/20/2017 01:09 Ice Warning 27.9F - 32F 32F 5 0% - - 98% 1 mhos 65 - Snow Slight 0.01 in 0.0 iph
Date/Time
(MST)
Sf
Temp Chem Water Layer Surface Precipitation
Sfc Pvt Sub Frz Factor Pct Dpth DpthThk IcePct Cond Salin FI Type Intens Accum Rate
02/20/2017 01:06 Ice Warning 28.0F - 32F 32F 5 0% - - 98% 1 mhos 67 - Snow Slight 0.01 in 0.0 iph
02/20/2017 00:59 Ice Warning 28.0F - 32F 32F 5 0% - - 98% 1 mhos 68 - Snow Slight 0.01 in 0.0 iph
02/20/2017 00:51 Ice Warning 28.2F - 32F 32F 5 0% - - 98% 1 mhos 67 - Snow Slight 0.01 in 0.0 iph
02/20/2017 00:49 Ice Warning 28.2F - 32F 32F 5 0% - - 98% 1 mhos 67 - Snow Slight 0.01 in 0.0 iph
02/20/2017 00:39 Ice Warning 28.4F - 32F 32F 5 0% - - 98% 1 mhos 67 - Snow Slight 0.01 in 0.0 iph
02/20/2017 00:36 Ice Warning 28.4F - 32F 32F 5 0% - - 98% 1 mhos 67 - Snow Slight 0.01 in 0.0 iph
02/20/2017 00:29 Ice Warning 28.8F - 32F 32F 5 0% - - 98% 1 mhos 67 - Snow Slight 0.01 in 0.0 iph
02/20/2017 00:21 Ice Warning 28.4F - 32F 32F 5 0% - - 98% 1 mhos 66 - Snow Slight 0.01 in 0.0 iph
02/20/2017 00:19 Ice Warning 28.4F - 32F 32F 5 0% - - 98% 1 mhos 66 - Snow Slight 0.01 in 0.0 iph
02/20/2017 00:09 Ice Warning 28.6F - 32F 32F 5 0% - - 98% 1 mhos 66 - Snow Slight 0.01 in 0.0 iph
02/20/2017 00:06 Ice Warning 28.6F - 32F 32F 5 0% - - 98% 1 mhos 66 - Snow Slight 0.01 in 0.0 iph
02/19/2017 23:59 Ice Warning 28.6F - 32F 32F 5 0% - - 98% 1 mhos 71 - Snow Slight 0.01 in 0.0 iph
02/19/2017 23:51 Ice Warning 28.6F - 32F 32F 5 0% - - 98% 1 mhos 75 - Snow Slight 0.01 in 0.0 iph
02/19/2017 23:49 Ice Warning 28.8F - 32F 32F 5 0% - - 98% 1 mhos 75 - Snow Slight 0.01 in 0.0 iph
02/19/2017 23:39 Ice Warning 28.9F - 32F 32F 5 0% - - 97% 1 mhos 81 - Snow Slight 0.01 in 0.0 iph
Date/Time
(MST)
Sf
Temp Chem Water Layer Surface Precipitation
Sfc Pvt Sub Frz Factor Pct Dpth DpthThk IcePct Cond Salin FI Type Intens Accum Rate
02/19/2017 23:36 Ice Warning 28.9F - 32F 32F 5 0% - - 97% 1 mhos 84 - Snow Slight 0.01 in 0.0 iph
02/19/2017 23:29 Ice Warning 29.1F - 32F 32F 5 0% - - 97% 1 mhos 89 - Snow Slight 0.01 in 0.0 iph
02/19/2017 23:21 Ice Warning 29.5F - 32F 32F 5 0% - - 96% 1 mhos 92 - Snow Slight 0.01 in 0.0 iph
02/19/2017 23:19 Ice Warning 29.5F - 32F 32F 5 0% - - 96% 1 mhos 93 - Snow Slight 0.01 in 0.0 iph
02/19/2017 23:09 Ice Warning 29.7F - 32F 32F 5 0% - - 95% 1 mhos 102 - Snow Slight 0.01 in 0.0 iph
02/19/2017 23:06 Ice Warning 30.0F - 32F 32F 5 0% - - 95% 1 mhos 104 - Snow Slight 0.01 in 0.0 iph
02/19/2017 22:59 Ice Warning 30.0F - 32F 32F 10 0% - - 94% 1 mhos 106 - Snow Slight 0.01 in 0.0 iph
02/19/2017 22:51 Ice Warning 30.6F - 32F 32F 10 0% - - 92% 1 mhos 113 - Snow Slight 0.01 in 0.0 iph
02/19/2017 22:49 Ice Warning 30.6F - 32F 32F 10 0% - - 92% 1 mhos 113 - Snow Slight 0.01 in 0.0 iph
02/19/2017 22:39 Ice Warning 30.7F - 32F 32F 10 0% - - 91% 1 mhos 112 - Snow Slight 0.01 in 0.0 iph
02/19/2017 22:36 Ice Warning 30.7F - 32F 32F 10 0% - - 90% 1 mhos 111 - Yes Slight 0.01 in 0.0 iph
02/19/2017 22:29 Ice Warning 30.9F - 32F 32F 10 0% - - 89% 1 mhos 111 - Snow Slight 0.01 in 0.0 iph
02/19/2017 22:21 Ice Warning 31.1F - 32F 32F 15 0% - - 88% 1 mhos 103 - Snow Slight 0.01 in 0.0 iph
02/19/2017 22:19 Ice Warning 31.1F - 32F 32F 15 0% - - 88% 1 mhos 104 - Snow Slight 0.01 in 0.0 iph
Change End Date:

Copyright © 1998-2015 Vaisala, Inc.
All Rights Reserved
Send comments about the data to:
SCAN Web ® is a registered trademark of Vaisala, Inc.
SCAN Web Version 6.0